Location: Newark
(30.4994°N, 96.8283°W)
Time: 02:11:10
(UTC+00:00)

Envisat - Pass Details

Date: 21 November 2019
Orbit: 764 x 766 km, 98.1° (Epoch: 14 December)

Event Time Altitude Azimuth Distance (km) Brightness Sun altitude
Rises 00:54:35 0° 178° (S) 3,216 6.4 -18.6°
Reaches altitude 10° 00:56:56 10° 183° (S) 2,294 5.6 -19.1°
Maximum altitude 01:01:52 54° 260° (W) 927 3.7 -20.1°
Drops below altitude 10° 01:06:50 10° 337° (NNW) 2,305 5.6 -21.1°
Sets 01:09:12 0° 342° (NNW) 3,234 6.3 -21.6°
